Tracking 19564 objects as of 19-Mar-2019
HD Live streaming from Space Station
objects crossing your sky now

SL-8 R/B

Track SL-8 R/B now!
10-day predictions
SL-8 R/B is classified as:


NORAD ID: 20775
Int'l Code: 1990-078B
Perigee: 374.1 km
Apogee: 1,203.4 km
Inclination: 82.9 °
Period: 100.5 minutes
Semi major axis: 7159 km
RCS: 8.0846 m2 (large)
Launch date: August 28, 1990
Source: Commonwealth of Independent States (former USSR) (CIS)
Launch site: PLESETSK MISSILE AND SPACE COMPLEX (PKMTR)

Note: This is a ROCKET BODY
aabbcc
Your satellite tracking list
Your tracking list is empty




NASA's NSSDC Master Catalog

Two Line Element Set (TLE):
1 20775U 90078B   19077.67594798  .00004317  00000-0  21137-3 0  9996
2 20775  82.9249 242.9007 0579117 168.2454 193.2962 14.33041336440289
Source of the keplerian elements: AFSPC